| time (UTC) | temp F | wind direction | speed MPH | gust MPH | rain 1hr in | rain 24hr in | rain mn in | humidity % | barometer mb |
| 20260509143310 | 62 | 284 | 2.0 | 5.0 | 0.00 | 0.05 | 0.05 | 87 | 1012.6 |
| 20260509142310 | 62 | 1 | 2.0 | 5.0 | 0.00 | 0.05 | 0.05 | 90 | 1012.7 |
| 20260509141310 | 61 | 8 | 3.0 | 8.0 | 0.00 | 0.05 | 0.05 | 92 | 1012.7 |
| 20260509140310 | 60 | 269 | 1.0 | 4.0 | 0.02 | 0.05 | 0.05 | 92 | 1012.8 |
| 20260509135310 | 59 | 60 | 1.0 | 5.0 | 0.02 | 0.05 | 0.05 | 93 | 1012.9 |
| 20260509134310 | 58 | 13 | 1.0 | 7.0 | 0.02 | 0.05 | 0.05 | 93 | 1012.9 |
| 20260509133310 | 58 | 314 | 1.0 | 5.0 | 0.03 | 0.05 | 0.05 | 92 | 1012.9 |
| 20260509132310 | 58 | 58 | 4.0 | 9.0 | 0.03 | 0.05 | 0.05 | 92 | 1012.9 |
| 20260509131311 | 58 | 42 | 3.0 | 7.0 | 0.03 | 0.05 | 0.05 | 91 | 1012.9 |
| 20260509130310 | 58 | 84 | 5.0 | 7.0 | 0.02 | 0.03 | 0.03 | 90 | 1012.9 |
| 20260509124310 | 58 | 49 | 4.0 | 11.0 | 0.01 | 0.02 | 0.02 | 90 | 1013.1 |
| 20260509123311 | 58 | 108 | 7.0 | 12.0 | 0.00 | 0.02 | 0.02 | 89 | 1013.0 |
| 20260509122310 | 58 | 105 | 7.0 | 14.0 | 0.00 | 0.02 | 0.02 | 89 | 1013.0 |
| 20260509120311 | 59 | 88 | 6.0 | 12.0 | 0.00 | 0.02 | 0.02 | 87 | 1013.0 |
| 20260509115310 | 59 | 63 | 9.0 | 12.0 | 0.00 | 0.02 | 0.02 | 86 | 1012.9 |
| 20260509114310 | 59 | 88 | 7.0 | 12.0 | 0.00 | 0.02 | 0.02 | 85 | 1013.0 |
| 20260509113310 | 60 | 54 | 7.0 | 14.0 | 0.00 | 0.02 | 0.02 | 85 | 1012.9 |
| 20260509112310 | 60 | 58 | 9.0 | 12.0 | 0.00 | 0.02 | 0.02 | 84 | 1013.1 |
| 20260509111310 | 61 | 86 | 8.0 | 14.0 | 0.00 | 0.02 | 0.02 | 84 | 1013.1 |
| 20260509110311 | 60 | 72 | 7.0 | 14.0 | 0.00 | 0.02 | 0.02 | 85 | 1013.1 |
| 20260509105310 | 60 | 94 | 8.0 | 14.0 | 0.00 | 0.02 | 0.02 | 85 | 1013.0 |
| 20260509104310 | 60 | 52 | 8.0 | 15.0 | 0.00 | 0.02 | 0.02 | 84 | 1013.1 |
| 20260509103310 | 60 | 88 | 7.0 | 13.0 | 0.00 | 0.02 | 0.02 | 84 | 1013.1 |
| 20260509101310 | 61 | 65 | 4.0 | 10.0 | 0.00 | 0.02 | 0.02 | 83 | 1013.2 |
| 20260509100310 | 61 | 344 | 5.0 | 10.0 | 0.00 | 0.02 | 0.02 | 81 | 1013.3 |
| 20260509095310 | 61 | 66 | 6.0 | 8.0 | 0.00 | 0.02 | 0.02 | 82 | 1013.4 |
| 20260509094310 | 61 | 77 | 5.0 | 9.0 | 0.00 | 0.02 | 0.02 | 80 | 1013.4 |
| 20260509093310 | 61 | 147 | 4.0 | 9.0 | 0.00 | 0.02 | 0.02 | 82 | 1013.5 |
| 20260509092310 | 61 | 79 | 4.0 | 10.0 | 0.00 | 0.02 | 0.02 | 83 | 1013.6 |
| 20260509091310 | 60 | 110 | 6.0 | 11.0 | 0.00 | 0.02 | 0.02 | 85 | 1013.6 |
| 20260509090310 | 59 | 138 | 4.0 | 8.0 | 0.00 | 0.02 | 0.02 | 87 | 1013.4 |
| 20260509085309 | 58 | 115 | 3.0 | 7.0 | 0.00 | 0.02 | 0.02 | 87 | 1013.4 |
| 20260509084310 | 58 | 117 | 4.0 | 10.0 | 0.00 | 0.02 | 0.02 | 88 | 1013.5 |
| 20260509083309 | 58 | 128 | 4.0 | 7.0 | 0.00 | 0.02 | 0.02 | 90 | 1013.6 |
| 20260509080309 | 57 | 25 | 2.0 | 3.0 | 0.00 | 0.02 | 0.02 | 91 | 1013.6 |
| 20260509075309 | 56 | 89 | 4.0 | 6.0 | 0.00 | 0.02 | 0.02 | 91 | 1013.5 |
| 20260509074310 | 56 | 127 | 3.0 | 7.0 | 0.01 | 0.02 | 0.02 | 91 | 1013.6 |
| 20260509073309 | 56 | 178 | 2.0 | 6.0 | 0.01 | 0.02 | 0.02 | 91 | 1013.6 |
| 20260509072309 | 56 | 117 | 3.0 | 6.0 | 0.01 | 0.02 | 0.02 | 91 | 1013.4 |
| 20260509071309 | 56 | 46 | 4.0 | 6.0 | 0.01 | 0.02 | 0.02 | 91 | 1013.4 |
| 20260509065309 | 56 | 98 | 3.0 | 5.0 | 0.01 | 0.02 | 0.02 | 90 | 1013.4 |
| 20260509064309 | 56 | 135 | 4.0 | 8.0 | 0.00 | 0.01 | 0.01 | 89 | 1013.4 |
| 20260509063309 | 56 | 128 | 6.0 | 9.0 | 0.00 | 0.01 | 0.01 | 89 | 1013.4 |
| 20260509062309 | 56 | 127 | 4.0 | 8.0 | 0.00 | 0.01 | 0.01 | 90 | 1013.4 |
| 20260509061309 | 56 | 107 | 4.0 | 7.0 | 0.00 | 0.01 | 0.01 | 91 | 1013.4 |
| 20260509060309 | 55 | 81 | 4.0 | 7.0 | 0.00 | 0.01 | 0.01 | 92 | 1013.4 |
| 20260509054309 | 55 | 117 | 4.0 | 7.0 | 0.00 | 0.01 | 0.01 | 94 | 1013.3 |
| 20260509053309 | 55 | 100 | 3.0 | 5.0 | 0.00 | 0.01 | 0.01 | 94 | 1013.3 |
| 20260509052309 | 54 | 110 | 4.0 | 5.0 | 0.00 | 0.01 | 0.01 | 94 | 1013.3 |
| 20260509051309 | 54 | 98 | 2.0 | 4.0 | 0.00 | 0.01 | 0.01 | 93 | 1013.3 |
| 20260509045309 | 55 | 105 | 2.0 | 3.0 | 0.00 | 0.01 | 0.01 | 93 | 1013.3 |
| 20260509043310 | 55 | 148 | 1.0 | 2.0 | 0.01 | 0.01 | 0.01 | 93 | 1013.2 |
| 20260509042310 | 55 | 68 | 1.0 | 2.0 | 0.01 | 0.01 | 0.01 | 93 | 1013.2 |
| 20260509041310 | 55 | 145 | 0.0 | 1.0 | 0.01 | 0.01 | 0.01 | 93 | 1013.3 |
| 20260509040310 | 55 | 1 | 1.0 | 2.0 | 0.01 | 0.01 | 0.01 | 92 | 1013.4 |
| 20260509035310 | 55 | 231 | 1.0 | 4.0 | 0.01 | 0.01 | 0.01 | 92 | 1013.9 |
| 20260509034310 | 56 | 241 | 1.0 | 3.0 | 0.01 | 0.01 | 0.01 | 92 | 1014.1 |
| 20260509031310 | 55 | 198 | 3.0 | 6.0 | 0.00 | 0.00 | 0.00 | 92 | 1014.0 |
| 20260509030310 | 55 | 209 | 2.0 | 3.0 | 0.00 | 0.00 | 0.00 | 91 | 1013.7 |
| 20260509025310 | 56 | 152 | 1.0 | 2.0 | 0.00 | 0.00 | 0.00 | 91 | 1013.7 |
| 20260509024310 | 56 | 108 | 1.0 | 2.0 | 0.00 | 0.00 | 0.00 | 91 | 1013.6 |
| 20260509023310 | 56 | 124 | 1.0 | 2.0 | 0.00 | 0.00 | 0.00 | 91 | 1013.6 |
| 20260509022310 | 56 | 124 | 1.0 | 2.0 | 0.00 | 0.00 | 0.00 | 91 | 1013.4 |
| 20260509020310 | 56 | 161 | 1.0 | 3.0 | 0.00 | 0.00 | 0.00 | 91 | 1013.5 |
| 20260509015310 | 56 | 135 | 1.0 | 3.0 | 0.00 | 0.00 | 0.00 | 91 | 1013.5 |
| 20260509014310 | 56 | 124 | 2.0 | 3.0 | 0.00 | 0.00 | 0.00 | 91 | 1013.5 |
| 20260509013310 | 56 | 59 | 1.0 | 5.0 | 0.00 | 0.00 | 0.00 | 91 | 1013.4 |
| 20260509012310 | 56 | 114 | 3.0 | 6.0 | 0.00 | 0.00 | 0.00 | 92 | 1013.5 |
| 20260509011310 | 56 | 137 | 3.0 | 6.0 | 0.00 | 0.00 | 0.00 | 94 | 1013.5 |
| 20260509010310 | 56 | 197 | 2.0 | 5.0 | 0.00 | 0.00 | 0.00 | 94 | 1013.5 |
| 20260509003310 | 56 | 114 | 2.0 | 5.0 | 0.00 | 0.00 | 0.00 | 96 | 1013.3 |
| 20260509002310 | 56 | 83 | 3.0 | 5.0 | 0.00 | 0.00 | 0.00 | 96 | 1013.5 |
| 20260509000311 | 56 | 77 | 3.0 | 4.0 | 0.00 | 0.00 | 0.00 | 96 | 1013.4 |
| 20260508235309 | 57 | 83 | 2.0 | 4.0 | 0.00 | 0.00 | 0.00 | 95 | 1013.5 |
| 20260508234309 | 56 | 89 | 2.0 | 4.0 | 0.00 | 0.00 | 0.00 | 95 | 1013.5 |
| 20260508233309 | 56 | 84 | 3.0 | 4.0 | 0.00 | 0.00 | 0.00 | 95 | 1013.5 |
| 20260508231309 | 56 | 74 | 2.0 | 4.0 | 0.00 | 0.00 | 0.00 | 95 | 1013.8 |
| 20260508230309 | 57 | 77 | 2.0 | 4.0 | 0.00 | 0.00 | 0.00 | 95 | 1013.9 |
| 20260508225310 | 57 | 67 | 2.0 | 3.0 | 0.00 | 0.00 | 0.00 | 94 | 1013.8 |
| 20260508224310 | 57 | 2 | 2.0 | 3.0 | 0.00 | 0.00 | 0.00 | 94 | 1013.7 |
| 20260508223309 | 57 | 20 | 2.0 | 5.0 | 0.00 | 0.00 | 0.00 | 94 | 1013.8 |
| 20260508222309 | 57 | 343 | 2.0 | 5.0 | 0.00 | 0.00 | 0.00 | 94 | 1014.0 |
| 20260508221309 | 57 | 39 | 3.0 | 6.0 | 0.00 | 0.00 | 0.00 | 94 | 1014.1 |
| 20260508220310 | 57 | 32 | 2.0 | 4.0 | 0.00 | 0.00 | 0.00 | 94 | 1014.2 |
| 20260508214310 | 57 | 9 | 4.0 | 7.0 | 0.00 | 0.12 | 0.12 | 93 | 1014.2 |
| 20260508212310 | 57 | 349 | 2.0 | 5.0 | 0.00 | 0.12 | 0.12 | 92 | 1014.1 |
| 20260508211310 | 57 | 127 | 2.0 | 5.0 | 0.01 | 0.12 | 0.12 | 91 | 1014.1 |
| 20260508210310 | 57 | 1 | 2.0 | 5.0 | 0.04 | 0.12 | 0.12 | 91 | 1013.9 |
| 20260508204310 | 58 | 314 | 2.0 | 5.0 | 0.08 | 0.12 | 0.12 | 90 | 1013.6 |
| 20260508203310 | 58 | 35 | 0.0 | 3.0 | 0.10 | 0.12 | 0.12 | 90 | 1013.5 |
| 20260508202310 | 57 | 219 | 2.0 | 6.0 | 0.11 | 0.12 | 0.12 | 89 | 1013.7 |
| 20260508201310 | 58 | 70 | 9.0 | 15.0 | 0.11 | 0.11 | 0.11 | 91 | 1013.3 |
| 20260508195310 | 58 | 46 | 5.0 | 9.0 | 0.07 | 0.07 | 0.07 | 90 | 1014.0 |
| 20260508194310 | 59 | 264 | 4.0 | 7.0 | 0.04 | 0.04 | 0.04 | 89 | 1013.9 |
| 20260508193310 | 60 | 253 | 4.0 | 6.0 | 0.02 | 0.02 | 0.02 | 88 | 1014.0 |
| 20260508192310 | 61 | 223 | 2.0 | 7.0 | 0.01 | 0.01 | 0.01 | 87 | 1013.8 |
| 20260508191310 | 61 | 206 | 2.0 | 4.0 | 0.00 | 0.00 | 0.00 | 85 | 1013.9 |
| 20260508190310 | 61 | 222 | 6.0 | 10.0 | 0.00 | 0.00 | 0.00 | 84 | 1013.5 |
| 20260508185310 | 61 | 56 | 4.0 | 10.0 | 0.00 | 0.00 | 0.00 | 85 | 1013.1 |
| 20260508184310 | 61 | 40 | 2.0 | 6.0 | 0.00 | 0.00 | 0.00 | 85 | 1012.9 |
| 20260508183310 | 61 | 59 | 2.0 | 6.0 | 0.00 | 0.00 | 0.00 | 86 | 1012.9 |
| 20260508182310 | 61 | 13 | 1.0 | 5.0 | 0.00 | 0.00 | 0.00 | 85 | 1012.8 |
| 20260508181310 | 61 | 46 | 1.0 | 3.0 | 0.00 | 0.00 | 0.00 | 86 | 1012.9 |
| 20260508180310 | 61 | 35 | 1.0 | 4.0 | 0.00 | 0.00 | 0.00 | 85 | 1012.9 |
| 20260508175310 | 61 | 46 | 2.0 | 13.0 | 0.00 | 0.00 | 0.00 | 84 | 1012.9 |
| 20260508174310 | 61 | 68 | 6.0 | 15.0 | 0.00 | 0.00 | 0.00 | 85 | 1012.5 |
| 20260508173310 | 62 | 95 | 7.0 | 14.0 | 0.00 | 0.00 | 0.00 | 84 | 1012.6 |
| 20260508172310 | 62 | 115 | 8.0 | 12.0 | 0.00 | 0.00 | 0.00 | 84 | 1012.7 |
| 20260508171309 | 62 | 77 | 6.0 | 10.0 | 0.00 | 0.00 | 0.00 | 83 | 1012.7 |
| 20260508170309 | 62 | 63 | 1.0 | 6.0 | 0.00 | 0.00 | 0.00 | 83 | 1012.6 |
| 20260508165309 | 62 | 46 | 2.0 | 7.0 | 0.00 | 0.00 | 0.00 | 83 | 1012.6 |
| 20260508164309 | 62 | 115 | 2.0 | 6.0 | 0.00 | 0.00 | 0.00 | 83 | 1012.6 |
| 20260508163309 | 62 | 70 | 2.0 | 6.0 | 0.00 | 0.00 | 0.00 | 83 | 1012.4 |
| 20260508162310 | 62 | 18 | 3.0 | 6.0 | 0.00 | 0.00 | 0.00 | 83 | 1012.4 |
| 20260508161309 | 62 | 76 | 1.0 | 5.0 | 0.00 | 0.00 | 0.00 | 82 | 1012.6 |
| 20260508160309 | 63 | 30 | 2.0 | 9.0 | 0.00 | 0.00 | 0.00 | 81 | 1012.5 |
| 20260508155309 | 63 | 84 | 7.0 | 10.0 | 0.00 | 0.00 | 0.00 | 80 | 1012.5 |
| 20260508154309 | 64 | 65 | 6.0 | 10.0 | 0.00 | 0.00 | 0.00 | 80 | 1012.6 |
| 20260508153309 | 64 | 342 | 3.0 | 8.0 | 0.00 | 0.00 | 0.00 | 81 | 1012.7 |
| 20260508151310 | 63 | 25 | 4.0 | 7.0 | 0.00 | 0.00 | 0.00 | 81 | 1012.9 |
| 20260508150309 | 63 | 63 | 7.0 | 9.0 | 0.00 | 0.00 | 0.00 | 81 | 1012.9 |
| 20260508145309 | 63 | 338 | 3.0 | 6.0 | 0.00 | 0.00 | 0.00 | 82 | 1013.0 |
| 20260508144309 | 62 | 82 | 3.0 | 8.0 | 0.00 | 0.00 | 0.00 | 81 | 1013.1 |